When you browse on this site, cookies collect data to enhance your experience and personalize the content and advertising you see.
Visit our Privacy Policy to learn more. By continuing to use the site, you agree to this use of cookies and data.
  • In Romania
  • List of Countries
  • For 7 days
  • Water Temperature
  • Weather Map
  • Weather Widgets
  • user-avatar
    Login

    Hourly Weather Sannois

    Today, 25 August, Sunday

    Time Temperature Precipitation Wind Pressure Humidity
    00:00 +23°C° 0 mm 1 mps 756 mmHg 52%
    01:00 +23°C° 0 mm 1 mps 756 mmHg 54%
    02:00 +22°C° 0 mm 1 mps 756 mmHg 55%
    03:00 +22°C° 0 mm 1 mps 756 mmHg 56%
    04:00 +22°C° 0 mm 1 mps 756 mmHg 57%
    05:00 +22°C° 0 mm 1 mps 756 mmHg 58%
    06:00 +22°C° 0 mm 1 mps 756 mmHg 58%
    07:00 +24°C° 0 mm 1 mps 757 mmHg 52%
    08:00 +26°C° 0 mm 1 mps 757 mmHg 46%
    09:00 +28°C° 0 mm 1 mps 757 mmHg 40%
    10:00 +30°C° 0 mm 1 mps 757 mmHg 35%
    11:00 +32°C° 0 mm 1 mps 757 mmHg 31%
    12:00 +33°C° 0 mm 1 mps 757 mmHg 27%
    13:00 +34°C° 0 mm 1 mps 757 mmHg 25%
    14:00 +34°C° 0 mm 1 mps 757 mmHg 24%
    15:00 +33°C° 0 mm 0 mps 756 mmHg 22%
    16:00 +34°C° 0 mm 1 mps 756 mmHg 25%
    17:00 +32°C° 0 mm 1 mps 756 mmHg 28%
    18:00 +31°C° 0 mm 2 mps 756 mmHg 31%
    19:00 +30°C° 0 mm 2 mps 757 mmHg 34%
    20:00 +28°C° 0 mm 2 mps 757 mmHg 38%
    21:00 +27°C° 0 mm 3 mps 757 mmHg 41%
    22:00 +26°C° 0 mm 2 mps 757 mmHg 43%
    23:00 +25°C° 0 mm 2 mps 757 mmHg 45%

    Tomorrow, 26 August, Monday

    Time Temperature Precipitation Wind Pressure Humidity
    00:00 +25°C° 0 mm 1 mps 757 mmHg 46%
    01:00 +24°C° 0 mm 1 mps 757 mmHg 48%
    02:00 +24°C° 0 mm 1 mps 757 mmHg 50%
    03:00 +21°C° 0 mm 0 mps 757 mmHg 51%
    04:00 +21°C° 0 mm 0 mps 757 mmHg 52%
    05:00 +23°C° 0 mm 1 mps 757 mmHg 54%
    06:00 +23°C° 0 mm 1 mps 757 mmHg 55%
    07:00 +25°C° 0 mm 1 mps 757 mmHg 50%
    08:00 +27°C° 0 mm 1 mps 757 mmHg 45%
    09:00 +29°C° 0 mm 1 mps 757 mmHg 41%
    10:00 +30°C° 0 mm 2 mps 757 mmHg 37%
    11:00 +32°C° 0 mm 2 mps 757 mmHg 33%
    12:00 +34°C° 0 mm 2 mps 756 mmHg 29%
    13:00 +34°C° 0 mm 2 mps 756 mmHg 27%
    14:00 +35°C° 0 mm 2 mps 756 mmHg 25%
    15:00 +35°C° 0 mm 2 mps 755 mmHg 24%
    16:00 +34°C° 0 mm 2 mps 755 mmHg 27%
    17:00 +32°C° 0 mm 2 mps 755 mmHg 31%
    18:00 +31°C° 0 mm 2 mps 755 mmHg 34%
    19:00 +29°C° 0 mm 2 mps 755 mmHg 37%
    20:00 +28°C° 0 mm 2 mps 755 mmHg 41%
    21:00 +27°C° 0 mm 2 mps 756 mmHg 44%
    22:00 +26°C° 0 mm 2 mps 755 mmHg 45%
    23:00 +25°C° 0 mm 2 mps 755 mmHg 46%

    Day after tomorrow, 27 August, Tuesday

    Time Temperature Precipitation Wind Pressure Humidity
    00:00 +25°C° 0 mm 1 mps 755 mmHg 48%
    01:00 +24°C° 0 mm 1 mps 755 mmHg 49%
    02:00 +24°C° 0 mm 1 mps 755 mmHg 50%
    03:00 +23°C° 0 mm 1 mps 755 mmHg 52%
    04:00 +23°C° 0 mm 1 mps 755 mmHg 53%
    05:00 +23°C° 0 mm 1 mps 755 mmHg 55%
    06:00 +23°C° 0 mm 1 mps 755 mmHg 57%
    07:00 +25°C° 0 mm 2 mps 755 mmHg 52%
    08:00 +27°C° 0 mm 2 mps 755 mmHg 47%
    09:00 +29°C° 0 mm 2 mps 755 mmHg 42%
    10:00 +30°C° 0 mm 2 mps 755 mmHg 37%
    11:00 +32°C° 0 mm 2 mps 755 mmHg 33%
    12:00 +34°C° 0 mm 2 mps 755 mmHg 29%
    13:00 +35°C° 0 mm 2 mps 754 mmHg 27%
    14:00 +35°C° 0 mm 2 mps 754 mmHg 25%
    15:00 +36°C° 0 mm 2 mps 753 mmHg 24%
    16:00 +35°C° 0 mm 2 mps 753 mmHg 27%
    17:00 +34°C° 0 mm 2 mps 753 mmHg 30%
    18:00 +31°C° 0 mm 2 mps 753 mmHg 33%
    19:00 +30°C° 0 mm 2 mps 753 mmHg 36%
    20:00 +29°C° 0 mm 2 mps 753 mmHg 38%
    21:00 +28°C° 0 mm 2 mps 753 mmHg 41%
    22:00 +27°C° 0 mm 2 mps 753 mmHg 42%
    23:00 +27°C° 0 mm 2 mps 753 mmHg 43%

    28 August, Wednesday

    Time Temperature Precipitation Wind Pressure Humidity
    00:00 +26°C° 0 mm 2 mps 753 mmHg 45%
    01:00 +26°C° 0 mm 2 mps 753 mmHg 46%
    02:00 +25°C° 0 mm 1 mps 753 mmHg 48%
    03:00 +25°C° 0 mm 1 mps 752 mmHg 49%
    04:00 +25°C° 0.1 mm 1 mps 752 mmHg 51%
    05:00 +25°C° 0.1 mm 1 mps 752 mmHg 53%
    06:00 +24°C° 0.1 mm 1 mps 752 mmHg 54%
    07:00 +25°C° 0.2 mm 2 mps 753 mmHg 54%
    08:00 +26°C° 0.2 mm 2 mps 753 mmHg 53%
    09:00 +26°C° 0.2 mm 2 mps 753 mmHg 52%
    10:00 +27°C° 0 mm 2 mps 752 mmHg 48%
    11:00 +29°C° 0 mm 3 mps 752 mmHg 45%
    12:00 +30°C° 0 mm 3 mps 752 mmHg 41%
    13:00 +30°C° 0 mm 3 mps 752 mmHg 41%
    14:00 +30°C° 0 mm 3 mps 752 mmHg 41%
    15:00 +30°C° 0 mm 3 mps 752 mmHg 40%
    16:00 +30°C° 0 mm 3 mps 752 mmHg 43%
    17:00 +29°C° 0 mm 2 mps 752 mmHg 46%
    18:00 +28°C° 0 mm 1 mps 752 mmHg 49%
    19:00 +27°C° 0.3 mm 1 mps 752 mmHg 54%
    20:00 +26°C° 0.3 mm 1 mps 752 mmHg 58%
    21:00 +25°C° 0.3 mm 1 mps 753 mmHg 63%
    22:00 +24°C° 0.4 mm 1 mps 753 mmHg 67%
    23:00 +23°C° 0.4 mm 2 mps 753 mmHg 71%

    29 August, Thursday

    Time Temperature Precipitation Wind Pressure Humidity
    00:00 +23°C° 0.4 mm 2 mps 754 mmHg 76%
    01:00 +21°C° 0.3 mm 2 mps 754 mmHg 79%
    02:00 +20°C° 0.3 mm 3 mps 754 mmHg 82%
    03:00 +19°C° 0.3 mm 3 mps 754 mmHg 85%
    04:00 +19°C° 0 mm 3 mps 754 mmHg 84%
    05:00 +18°C° 0 mm 3 mps 755 mmHg 84%
    06:00 +18°C° 0 mm 3 mps 755 mmHg 83%
    07:00 +18°C° 0 mm 4 mps 756 mmHg 78%
    08:00 +19°C° 0 mm 4 mps 757 mmHg 73%
    09:00 +19°C° 0 mm 4 mps 757 mmHg 67%
    10:00 +21°C° 0 mm 4 mps 757 mmHg 60%
    11:00 +22°C° 0 mm 4 mps 758 mmHg 52%
    12:00 +23°C° 0 mm 4 mps 758 mmHg 45%
    13:00 +23°C° 0 mm 4 mps 758 mmHg 43%
    14:00 +25°C° 0 mm 4 mps 758 mmHg 41%
    15:00 +25°C° 0 mm 4 mps 758 mmHg 39%
    16:00 +23°C° 0 mm 4 mps 758 mmHg 42%
    17:00 +22°C° 0 mm 4 mps 758 mmHg 45%
    18:00 +21°C° 0 mm 3 mps 759 mmHg 48%
    19:00 +19°C° 0 mm 3 mps 759 mmHg 53%
    20:00 +18°C° 0 mm 3 mps 760 mmHg 59%
    21:00 +17°C° 0 mm 2 mps 760 mmHg 64%
    22:00 +16°C° 0 mm 2 mps 760 mmHg 66%
    23:00 +16°C° 0 mm 2 mps 760 mmHg 68%

    30 August, Friday

    Time Temperature Precipitation Wind Pressure Humidity
    00:00 +15°C° 0 mm 2 mps 760 mmHg 71%
    01:00 +15°C° 0 mm 1 mps 760 mmHg 72%
    02:00 +14°C° 0 mm 1 mps 760 mmHg 74%
    03:00 +14°C° 0 mm 1 mps 760 mmHg 76%
    04:00 +14°C° 0 mm 1 mps 760 mmHg 75%
    05:00 +14°C° 0 mm 1 mps 761 mmHg 74%
    06:00 +14°C° 0 mm 1 mps 761 mmHg 73%
    07:00 +16°C° 0 mm 1 mps 761 mmHg 67%
    08:00 +18°C° 0 mm 1 mps 761 mmHg 61%
    09:00 +20°C° 0 mm 1 mps 761 mmHg 54%
    10:00 +21°C° 0 mm 1 mps 761 mmHg 48%
    11:00 +23°C° 0 mm 1 mps 761 mmHg 42%
    12:00 +25°C° 0 mm 1 mps 760 mmHg 35%
    13:00 +25°C° 0 mm 1 mps 760 mmHg 34%
    14:00 +25°C° 0 mm 1 mps 759 mmHg 32%
    15:00 +26°C° 0 mm 1 mps 759 mmHg 30%
    16:00 +25°C° 0 mm 1 mps 759 mmHg 33%
    17:00 +24°C° 0 mm 1 mps 759 mmHg 37%
    18:00 +23°C° 0 mm 1 mps 759 mmHg 40%
    19:00 +22°C° 0 mm 1 mps 759 mmHg 47%
    20:00 +19°C° 0 mm 2 mps 759 mmHg 53%
    21:00 +18°C° 0 mm 2 mps 759 mmHg 60%
    22:00 +17°C° 0 mm 2 mps 759 mmHg 64%
    23:00 +17°C° 0 mm 2 mps 759 mmHg 69%
    Show more